TimeAST,TemperatureF,Dew PointF,Humidity,Sea Level PressureIn,VisibilityMPH,Wind Direction,Wind SpeedMPH,Gust SpeedMPH,PrecipitationIn,Events,Conditions,WindDirDegrees,DateUTC
12:00 AM,82.4,71.6,70,29.95,6.2,East,12.7,-,N/A,,Scattered Clouds,90,2011-10-30 04:00:00
1:00 AM,82.4,73.4,74,29.95,6.2,East,9.2,-,N/A,,Scattered Clouds,100,2011-10-30 05:00:00
2:00 AM,81,73,70,29.94,12,East,4.6,,,Rain,Light Rain Showers,100,2011-10-30 06:00:00
2:00 AM,80.6,73.4,79,29.92,6.2,East,4.6,-,N/A,,Scattered Clouds,100,2011-10-30 06:00:00
3:00 AM,80.6,73.4,79,29.92,6.2,East,5.8,-,N/A,,Scattered Clouds,80,2011-10-30 07:00:00
5:00 AM,80,73,75,29.92,22,East,8.1,,,,Partly Cloudy,100,2011-10-30 09:00:00
5:00 AM,78.8,73.4,83,29.89,6.2,East,8.1,-,N/A,,Scattered Clouds,100,2011-10-30 09:00:00
6:00 AM,80.6,73.4,79,29.92,6.2,ESE,5.8,-,N/A,,Scattered Clouds,120,2011-10-30 10:00:00
7:00 AM,82.4,73.4,74,29.95,6.2,East,10.4,-,N/A,,Scattered Clouds,100,2011-10-30 11:00:00
8:00 AM,83,72,62,29.97,28,ESE,13.8,,,,Partly Cloudy,110,2011-10-30 12:00:00
8:00 AM,82.4,71.6,70,29.95,6.2,East,12.7,-,N/A,,Partly Cloudy,100,2011-10-30 12:00:00
9:00 AM,84.2,71.6,66,29.98,6.2,East,11.5,-,N/A,,Partly Cloudy,100,2011-10-30 13:00:00
10:00 AM,86.0,71.6,62,29.98,6.2,East,13.8,-,N/A,,Scattered Clouds,90,2011-10-30 14:00:00
11:00 AM,86.0,71.6,62,29.98,6.2,East,13.8,-,N/A,,Scattered Clouds,100,2011-10-30 15:00:00
12:00 PM,86.0,73.4,66,29.95,6.2,East,15.0,-,N/A,,Scattered Clouds,90,2011-10-30 16:00:00
1:00 PM,86.0,71.6,62,29.92,-9999.0,ESE,13.8,-,N/A,,Scattered Clouds,110,2011-10-30 17:00:00
2:00 PM,87,73,54,29.93,28,East,13.8,,,,Partly Cloudy,100,2011-10-30 18:00:00
2:00 PM,86.0,73.4,66,29.92,6.2,East,13.8,-,N/A,,Scattered Clouds,90,2011-10-30 18:00:00
3:00 PM,86.0,73.4,66,29.92,6.2,ENE,13.8,-,N/A,,Mostly Cloudy,70,2011-10-30 19:00:00
4:00 PM,86.0,73.4,66,29.92,6.2,East,11.5,-,N/A,,Scattered Clouds,90,2011-10-30 20:00:00
5:00 PM,84,74,64,29.93,28,East,12.7,,,,Scattered Clouds,90,2011-10-30 21:00:00
5:00 PM,84.2,73.4,70,29.92,6.2,East,12.7,-,N/A,,Partly Cloudy,80,2011-10-30 21:00:00
6:00 PM,82.4,73.4,74,29.92,6.2,East,13.8,-,N/A,,Partly Cloudy,80,2011-10-30 22:00:00
7:00 PM,82.4,73.4,74,29.92,6.2,East,15.0,-,N/A,,Partly Cloudy,80,2011-10-30 23:00:00
8:00 PM,82,74,69,29.95,28,East,12.7,,,,Scattered Clouds,80,2011-10-31 00:00:00
8:00 PM,82.4,73.4,74,29.95,6.2,East,12.7,-,N/A,,Partly Cloudy,80,2011-10-31 00:00:00
9:00 PM,82.4,75.2,79,29.95,6.2,ENE,9.2,-,N/A,,Partly Cloudy,70,2011-10-31 01:00:00
10:00 PM,80.6,73.4,79,29.95,6.2,East,11.5,-,N/A,,Partly Cloudy,80,2011-10-31 02:00:00
11:00 PM,80,72,72,29.97,9,East,12.7,,,Rain,Light Rain Showers,100,2011-10-31 03:00:00
11:00 PM,78.8,71.6,78,29.95,6.2,East,15.0,28.8,N/A,Rain,Light Rain Showers,90,2011-10-31 03:00:00